Weather History for Springfield, VT

Change the Weather History Date:

Thursday, July 18, 2013

  Actual Average Record
Temperature  
Mean Temperature 81 °F 69 °F  
Max Temperature 93 °F 81 °F 93 °F (2013)
Min Temperature 69 °F 57 °F 53 °F (2014)
Cooling Degree Days 16 5  
Month to date cooling degree days 196 83  
Year to date cooling degree days 309 159  
Since 1 June cooling degree days 285 147  
Growing Degree Days 30 (Base 50)    
Moisture  
Dew Point 69 °F    
Average Humidity 72    
Maximum Humidity 100    
Minimum Humidity 44    
Precipitation  
Precipitation 0.42 in 0.17 in 0.99 in (2007)
Month to date precipitation 2.99 2.53  
Year to date precipitation 21.10 22.69  
Sea Level Pressure  
Sea Level Pressure 29.99 in    
Wind  
Wind Speed 3 mph (North)    
Max Wind Speed 17 mph    
Max Gust Speed 24 mph    
Visibility 7 miles    
Events Fog , Rain , Thunderstorm    
T = Trace of Precipitation, MM = Missing Value Source: NWS Daily Summary

Daily Weather History Graph

Daily Weather History Graph

Search for Another Location

Airport:

Trip Planner

Search our weather history database for the weather conditions in past years. The results will help you decide how hot, cold, wet, or windy it might be!

Date:

Astronomy

Jul. 18, 2013 Rise Set
Actual Time 5:26 AM EDT 8:25 PM EDT
Civil Twilight 4:52 AM EDT 8:59 PM EDT
Nautical Twilight 4:08 AM EDT 9:43 PM EDT
Astronomical Twilight 3:17 AM EDT 10:34 PM EDT
Moon 4:18 PM EDT (7/18) 1:16 AM EDT (7/18)
Length of Visible Light 16h 07m
Length of Day
14h 59m
Waxing Gibbous, 77% of the Moon is Illuminated
Jul 18
Waxing Gibbous
Jul 22
Full
Jul 29
Last Quarter
Aug 6
New
Aug 14
First Quarter

Hourly Weather History & Observations

Time (EDT) Temp. Heat Index Dew Point Humidity Pressure Visibility Wind Dir Wind Speed Gust Speed Precip Events Conditions
12:54 AM 73.9 °F - 70.0 °F 87% 30.01 in 10.0 mi Calm Calm - N/A   Partly Cloudy
1:54 AM 73.9 °F - 71.1 °F 91% 30.01 in 8.0 mi NE 3.5 mph - N/A   Partly Cloudy
2:54 AM 73.0 °F - 70.0 °F 90% 30.01 in 8.0 mi Calm Calm - N/A   Partly Cloudy
3:54 AM 71.1 °F - 70.0 °F 96% 30.00 in 6.0 mi Calm Calm - N/A   Clear
4:54 AM 71.1 °F - 69.1 °F 93% 30.01 in 5.0 mi Calm Calm - N/A   Clear
5:32 AM 69.8 °F - 69.8 °F 100% 30.02 in 2.5 mi Calm Calm - N/A   Partly Cloudy
5:40 AM 69.8 °F - 69.8 °F 100% 30.03 in 3.0 mi Calm Calm - N/A   Partly Cloudy
5:54 AM 70.0 °F - 69.1 °F 97% 30.02 in 3.0 mi Calm Calm - N/A   Partly Cloudy
6:16 AM 69.8 °F - 69.8 °F 100% 30.04 in 2.5 mi Calm Calm - N/A   Partly Cloudy
6:25 AM 69.8 °F - 69.8 °F 100% 30.04 in 3.0 mi Calm Calm - N/A   Partly Cloudy
6:54 AM 72.0 °F - 70.0 °F 93% 30.04 in 4.0 mi Calm Calm - N/A   Clear
7:54 AM 77.0 °F - 72.0 °F 84% 30.04 in 7.0 mi ENE 3.5 mph - N/A   Clear
8:54 AM 82.0 °F 86.7 °F 72.0 °F 71% 30.04 in 10.0 mi ENE 3.5 mph - N/A   Clear
9:54 AM 86.0 °F 88.8 °F 66.9 °F 53% 30.03 in 10.0 mi Variable 4.6 mph - N/A   Clear
10:54 AM 89.1 °F 91.3 °F 66.0 °F 46% 30.02 in 10.0 mi Variable 6.9 mph - N/A   Clear
11:54 AM 90.0 °F 92.8 °F 66.9 °F 46% 30.01 in 10.0 mi NW 4.6 mph - N/A   Clear
12:54 PM 89.1 °F 91.0 °F 64.9 °F 45% 30.00 in 10.0 mi West 8.1 mph - N/A   Scattered Clouds
1:54 PM 91.9 °F 94.5 °F 66.0 °F 42% 30.00 in 10.0 mi Variable 3.5 mph - N/A   Clear
2:54 PM 90.0 °F 93.6 °F 68.0 °F 48% 29.97 in 10.0 mi Calm Calm - N/A   Mostly Cloudy
3:54 PM 91.9 °F 95.4 °F 66.9 °F 44% 29.95 in 10.0 mi WSW 5.8 mph - N/A   Mostly Cloudy
4:54 PM 89.1 °F 94.1 °F 70.0 °F 53% 29.95 in 10.0 mi WSW 5.8 mph - N/A   Clear
5:06 PM 89.6 °F 94.7 °F 69.8 °F 52% 29.95 in 10.0 mi SW 4.6 mph - N/A Thunderstorm Clear
5:41 PM 80.6 °F 82.7 °F 66.2 °F 61% 29.96 in 10.0 mi NNE 6.9 mph 23.0 mph N/A Thunderstorm Mostly Cloudy
5:54 PM 80.1 °F 82.3 °F 66.9 °F 64% 29.96 in 10.0 mi NE 6.9 mph - N/A Thunderstorm Partly Cloudy
6:15 PM 78.8 °F - 68.0 °F 69% 29.98 in 10.0 mi NE 5.8 mph - N/A   Clear
6:54 PM 79.0 °F - 69.1 °F 72% 29.97 in 10.0 mi Calm Calm - N/A   Clear
7:02 PM 78.8 °F - 69.8 °F 74% 29.98 in 10.0 mi Calm Calm - N/A Thunderstorm Thunderstorm
7:36 PM 73.4 °F - 69.8 °F 88% 30.01 in 1.5 mi North 8.1 mph 23.0 mph 0.11 in Rain , Thunderstorm Heavy Thunderstorms and Rain
7:42 PM 71.6 °F - 69.8 °F 94% 29.99 in 0.2 mi NNE 10.4 mph 24.2 mph 0.42 in Fog , Rain , Thunderstorm Heavy Thunderstorms and Rain
7:49 PM 71.6 °F - 71.6 °F 100% 29.99 in 1.0 mi North 9.2 mph - 0.42 in Rain , Thunderstorm Light Thunderstorms and Rain
7:50 PM 72.0 °F - 71.1 °F 97% 29.99 in 1.8 mi North 8.1 mph - 0.42 in Rain , Thunderstorm Light Thunderstorms and Rain
7:52 PM 71.6 °F - 71.6 °F 100% 29.99 in 4.0 mi North 8.1 mph - 0.00 in Rain , Thunderstorm Light Thunderstorms and Rain
8:54 PM 72.0 °F - 71.1 °F 97% 29.98 in 7.0 mi Calm Calm - 0.00 in   Partly Cloudy
9:54 PM 72.0 °F - 71.1 °F 97% 29.99 in 8.0 mi Calm Calm - N/A   Clear
10:07 PM 71.6 °F - 71.6 °F 100% 29.99 in 8.0 mi Calm Calm - N/A   Partly Cloudy
10:26 PM 71.6 °F - 71.6 °F 100% 29.99 in 6.0 mi Calm Calm - N/A   Mostly Cloudy
10:54 PM 72.0 °F - 71.1 °F 97% 29.98 in 8.0 mi Calm Calm - N/A   Overcast
11:13 PM 73.4 °F - 69.8 °F 88% 29.98 in 6.0 mi Calm Calm - N/A   Scattered Clouds
11:24 PM 71.6 °F - 69.8 °F 94% 29.98 in 2.5 mi Calm Calm - N/A   Mostly Cloudy
11:32 PM 71.6 °F - 69.8 °F 94% 29.98 in 5.0 mi Calm Calm - N/A   Mostly Cloudy
11:41 PM 71.6 °F - 69.8 °F 94% 29.97 in 5.0 mi Calm Calm - N/A   Scattered Clouds
11:50 PM 71.6 °F - 69.8 °F 94% 29.97 in 6.0 mi Calm Calm - N/A   Mostly Cloudy
11:54 PM 71.1 °F - 70.0 °F 96% 29.96 in 6.0 mi Calm Calm - N/A   Mostly Cloudy